TimeMDT,TemperatureF,Dew PointF,Humidity,Sea Level PressureIn,VisibilityMPH,Wind Direction,Wind SpeedMPH,Gust SpeedMPH,PrecipitationIn,Events,Conditions,WindDirDegrees,DateUTC
12:15 AM,72.5,37.6,28,30.44,10.0,NW,11.5,-,N/A,,Clear,320,2013-07-09 06:15:00
12:35 AM,71.4,38.1,30,30.45,10.0,NNW,8.1,-,N/A,,Clear,340,2013-07-09 06:35:00
12:55 AM,69.6,37.8,31,30.45,10.0,NNW,5.8,-,N/A,,Clear,340,2013-07-09 06:55:00
1:15 AM,69.3,36.7,30,30.45,10.0,NNW,10.4,-,N/A,,Clear,330,2013-07-09 07:15:00
1:35 AM,69.8,36.0,29,30.45,10.0,NNW,11.5,-,N/A,,Clear,330,2013-07-09 07:35:00
1:55 AM,68.2,36.3,31,30.45,10.0,NNW,11.5,-,N/A,,Clear,330,2013-07-09 07:55:00
2:15 AM,67.3,36.0,32,30.45,10.0,NNW,10.4,-,N/A,,Clear,330,2013-07-09 08:15:00
2:35 AM,66.7,35.8,32,30.45,10.0,NNW,12.7,-,N/A,,Clear,330,2013-07-09 08:35:00
2:55 AM,65.5,36.5,34,30.46,10.0,NW,9.2,-,N/A,,Clear,320,2013-07-09 08:55:00
3:15 AM,65.3,36.0,34,30.45,10.0,NNW,10.4,-,N/A,,Clear,330,2013-07-09 09:15:00
3:35 AM,64.0,36.7,36,30.46,10.0,NW,11.5,-,N/A,,Clear,320,2013-07-09 09:35:00
3:55 AM,62.8,37.4,39,30.47,10.0,NNW,9.2,-,N/A,,Clear,330,2013-07-09 09:55:00
4:15 AM,62.8,37.0,38,30.47,10.0,NNW,8.1,-,N/A,,Clear,330,2013-07-09 10:15:00
4:35 AM,61.5,38.3,42,30.47,10.0,NW,10.4,-,N/A,,Clear,310,2013-07-09 10:35:00
4:55 AM,60.3,38.3,44,30.48,10.0,NW,4.6,-,N/A,,Clear,320,2013-07-09 10:55:00
5:15 AM,59.5,37.9,45,30.49,10.0,NW,5.8,-,N/A,,Clear,310,2013-07-09 11:15:00
5:35 AM,59.9,38.3,45,30.49,10.0,NNW,8.1,-,N/A,,Clear,340,2013-07-09 11:35:00
5:55 AM,58.1,39.0,49,30.49,10.0,West,9.2,-,N/A,,Clear,260,2013-07-09 11:55:00
6:15 AM,57.6,39.4,51,30.50,10.0,WNW,5.8,-,N/A,,Clear,290,2013-07-09 12:15:00
6:35 AM,59.9,38.3,45,30.50,10.0,Calm,Calm,-,N/A,,Clear,0,2013-07-09 12:35:00
6:55 AM,60.3,39.0,45,30.51,10.0,NNW,6.9,-,N/A,,Clear,330,2013-07-09 12:55:00
7:15 AM,61.2,38.7,43,30.52,10.0,NNW,8.1,-,N/A,,Clear,340,2013-07-09 13:15:00
7:35 AM,61.0,39.2,45,30.52,10.0,NW,4.6,-,N/A,,Clear,320,2013-07-09 13:35:00
7:55 AM,65.1,37.4,36,30.52,10.0,NNW,4.6,-,N/A,,Clear,330,2013-07-09 13:55:00
8:15 AM,66.4,37.8,35,30.52,10.0,NNW,5.8,-,N/A,,Clear,330,2013-07-09 14:15:00
8:55 AM,70.0,37.2,30,30.52,10.0,NNW,4.6,-,N/A,,Clear,340,2013-07-09 14:55:00
9:15 AM,72.0,39.9,31,30.52,10.0,Calm,Calm,-,N/A,,Clear,0,2013-07-09 15:15:00
9:35 AM,72.9,39.4,30,30.51,10.0,Calm,Calm,-,N/A,,Clear,0,2013-07-09 15:35:00
9:55 AM,76.3,37.0,24,30.50,10.0,NNW,3.5,-,N/A,,Clear,330,2013-07-09 15:55:00
10:15 AM,77.2,36.9,23,30.50,10.0,NNW,3.5,-,N/A,,Clear,330,2013-07-09 16:15:00
10:35 AM,78.8,37.0,22,30.49,10.0,Calm,Calm,-,N/A,,Clear,0,2013-07-09 16:35:00
10:55 AM,82.4,36.9,20,30.49,10.0,NNE,3.5,-,N/A,,Clear,20,2013-07-09 16:55:00
11:15 AM,84.7,33.6,16,30.49,10.0,NNE,4.6,-,N/A,,Clear,30,2013-07-09 17:15:00
11:35 AM,85.5,31.5,14,30.48,10.0,Calm,Calm,-,N/A,,Clear,0,2013-07-09 17:35:00
11:55 AM,88.2,30.0,12,30.47,10.0,NNE,5.8,-,N/A,,Clear,20,2013-07-09 17:55:00
12:15 PM,88.0,29.3,12,30.47,10.0,NNE,4.6,-,N/A,,Clear,20,2013-07-09 18:15:00
12:35 PM,89.8,30.9,12,30.46,10.0,North,6.9,-,N/A,,Clear,360,2013-07-09 18:35:00
12:55 PM,88.7,30.6,12,30.46,10.0,Calm,Calm,-,N/A,,Clear,0,2013-07-09 18:55:00
1:15 PM,88.2,29.8,12,30.45,10.0,NNW,12.7,18.4,N/A,,Scattered Clouds,340,2013-07-09 19:15:00
1:35 PM,86.7,30.0,13,30.45,10.0,NNE,4.6,-,N/A,,Scattered Clouds,30,2013-07-09 19:35:00
1:55 PM,90.5,30.0,12,30.44,10.0,Calm,Calm,-,N/A,,Clear,0,2013-07-09 19:55:00
2:15 PM,86.4,31.3,14,30.44,10.0,SE,8.1,-,N/A,,Clear,140,2013-07-09 20:15:00
2:35 PM,89.1,30.6,12,30.43,10.0,ESE,8.1,-,N/A,,Clear,120,2013-07-09 20:35:00
2:55 PM,87.1,29.8,13,30.42,10.0,SE,3.5,-,N/A,,Clear,130,2013-07-09 20:55:00
3:15 PM,86.7,29.3,13,30.42,10.0,ESE,3.5,-,N/A,,Clear,120,2013-07-09 21:15:00
3:35 PM,88.0,29.3,12,30.41,10.0,ESE,9.2,-,N/A,,Clear,110,2013-07-09 21:35:00
3:55 PM,87.8,30.7,13,30.41,10.0,SE,10.4,-,N/A,,Clear,130,2013-07-09 21:55:00
4:15 PM,87.1,30.0,13,30.40,10.0,East,9.2,-,N/A,,Clear,100,2013-07-09 22:15:00
4:35 PM,88.9,30.6,12,30.40,10.0,ESE,8.1,-,N/A,,Clear,110,2013-07-09 22:35:00
4:55 PM,86.9,29.3,13,30.40,10.0,SE,11.5,19.6,N/A,,Clear,140,2013-07-09 22:55:00
5:15 PM,86.4,30.7,14,30.39,10.0,ESE,11.5,18.4,N/A,,Clear,120,2013-07-09 23:15:00
5:35 PM,87.8,30.2,13,30.39,10.0,ESE,10.4,18.4,N/A,,Clear,120,2013-07-09 23:35:00
5:55 PM,86.9,31.5,14,30.39,10.0,ESE,11.5,16.1,N/A,,Clear,110,2013-07-09 23:55:00
6:15 PM,84.4,35.2,17,30.39,10.0,SE,20.7,31.1,N/A,,Clear,130,2013-07-10 00:15:00
6:35 PM,83.3,36.9,19,30.39,10.0,ESE,17.3,28.8,N/A,,Clear,120,2013-07-10 00:35:00
6:55 PM,82.9,37.8,20,30.40,10.0,ESE,15.0,27.6,N/A,,Clear,110,2013-07-10 00:55:00
7:15 PM,81.5,38.1,21,30.40,10.0,ESE,20.7,26.5,N/A,,Scattered Clouds,120,2013-07-10 01:15:00
7:35 PM,80.2,37.9,22,30.41,10.0,SE,16.1,23.0,N/A,,Scattered Clouds,130,2013-07-10 01:35:00
7:55 PM,79.9,38.3,23,30.42,10.0,East,10.4,19.6,N/A,,Overcast,100,2013-07-10 01:55:00
8:15 PM,79.9,38.1,22,30.45,10.0,NE,6.9,-,N/A,,Overcast,40,2013-07-10 02:15:00
8:35 PM,74.7,44.6,34,30.46,10.0,NNW,3.5,20.7,N/A,,Overcast,340,2013-07-10 02:35:00
8:55 PM,75.4,46.8,36,30.46,10.0,NW,5.8,-,N/A,,Scattered Clouds,320,2013-07-10 02:55:00
9:15 PM,73.8,43.7,34,30.48,10.0,NW,8.1,-,N/A,,Scattered Clouds,310,2013-07-10 03:15:00
9:35 PM,73.4,42.6,33,30.49,10.0,NNW,6.9,-,N/A,,Scattered Clouds,340,2013-07-10 03:35:00
9:55 PM,72.9,42.4,33,30.50,10.0,NNW,5.8,-,N/A,,Clear,340,2013-07-10 03:55:00
10:15 PM,72.7,42.3,33,30.50,10.0,NNW,6.9,-,N/A,,Clear,330,2013-07-10 04:15:00
10:35 PM,70.3,43.0,37,30.50,10.0,NNW,5.8,-,N/A,,Clear,330,2013-07-10 04:35:00
10:55 PM,70.7,42.4,36,30.50,10.0,NW,4.6,-,N/A,,Clear,320,2013-07-10 04:55:00
11:15 PM,70.5,42.6,36,30.51,10.0,NW,5.8,-,N/A,,Clear,310,2013-07-10 05:15:00
11:35 PM,68.0,45.1,44,30.51,10.0,NW,5.8,-,N/A,,Clear,310,2013-07-10 05:35:00
11:55 PM,68.9,44.4,41,30.51,10.0,WNW,3.5,-,N/A,,Clear,290,2013-07-10 05:55:00